Waarnemingen

Advertentie
Mijn weer
Huesca, Spanje (8094): temperatuur & dauwpunt: 22.05.2018 12:00:00 - 28.05.2018 12:00:00 (CEST)Huesca, Spanje (8094): windsnelheid: 22.05.2018 12:00:00 - 28.05.2018 12:00:00 (CEST)Huesca, Spanje (8094): windrichting: 22.05.2018 12:00:00 - 28.05.2018 12:00:00 (CEST)Huesca, Spanje (8094): luchtdruk: 22.05.2018 12:00:00 - 28.05.2018 12:00:00 (CEST)Huesca, Spanje (8094): zicht: 22.05.2018 12:00:00 - 28.05.2018 12:00:00 (CEST)Huesca, Spanje (8094): neerslag: 22.05.2018 12:00:00 - 28.05.2018 12:00:00 (CEST)
Datum & Tijd tt [°C] td [°C] ff [km/u] ff [kn] dd ppp [hPa] vv [km] rr [mm]
28.05.2018 12:00:00 - - - - - - - -
28.05.2018 11:00:00 15,2 13,7 4 2 ZZW 1012,9 40 -
28.05.2018 10:00:00 14,2 13,2 4 2 NNO 1013,0 - 2,0
28.05.2018 09:00:00 14,1 13,3 5 3 NNO 1013,2 - 3,0
28.05.2018 08:00:00 14,1 13,6 8 4 ZZW 1013,0 - -
28.05.2018 07:00:00 14,4 13,6 2 1 Z 1012,7 - 0,0
28.05.2018 06:00:00 14,3 13,7 4 2 NW 1012,6 - 0,0
28.05.2018 05:00:00 14,5 13,7 8 4 NNW 1012,5 - -
28.05.2018 04:00:00 14,0 13,0 4 2 N 1013,3 - 0,0
28.05.2018 03:00:00 13,7 12,8 5 3 NW 1013,2 - 0,0
28.05.2018 02:00:00 15,0 14,2 4 2 W 1013,2 - -
28.05.2018 01:00:00 16,6 15,5 13 7 ZO 1012,5 - 4,0
28.05.2018 00:00:00 17,8 13,5 16 9 O 1011,7 - 0,0
27.05.2018 23:00:00 17,5 14,4 9 5 O 1011,5 - -
27.05.2018 22:00:00 18,8 13,6 8 4 NNO 1010,4 - 0,0
27.05.2018 21:00:00 18,9 14,8 5 3 NNO 1010,5 - 0,0
27.05.2018 20:00:00 18,9 13,7 8 4 NO 1010,1 - -
27.05.2018 19:00:00 21,5 13,1 5 3 NNO 1009,7 - 0,0
27.05.2018 18:00:00 23,5 15,3 4 2 ZW 1009,3 - 0,0
27.05.2018 17:00:00 24,9 15,0 8 4 ZZW 1008,6 30 -
27.05.2018 16:00:00 25,2 14,3 8 4 Z 1008,9 - 0,0
27.05.2018 15:00:00 24,7 14,5 8 4 Z 1009,7 - 0,0
27.05.2018 14:00:00 23,9 15,1 5 3 ZW 1010,5 30 -
27.05.2018 13:00:00 23,1 15,2 8 4 ZW 1011,4 - 0,0
27.05.2018 12:00:00 21,9 15,5 5 3 W 1012,1 - 0,0
27.05.2018 11:00:00 20,5 15,5 5 3 WZW 1012,6 28 -
27.05.2018 10:00:00 19,2 14,9 5 3 W 1012,8 - 0,0
27.05.2018 09:00:00 17,2 14,8 4 2 WNW 1013,0 - 0,0
27.05.2018 08:00:00 15,0 13,5 5 3 NW 1013,1 - -
27.05.2018 07:00:00 14,5 13,4 4 2 NW 1013,2 - 0,0
27.05.2018 06:00:00 14,3 13,0 2 1 N 1013,0 - 0,0
27.05.2018 05:00:00 14,4 13,1 2 1 WNW 1013,5 - -
27.05.2018 04:00:00 15,0 13,7 9 5 O 1013,2 - 0,0
27.05.2018 03:00:00 14,9 13,6 8 4 O 1013,8 - 0,0
27.05.2018 02:00:00 15,0 13,7 9 5 O 1014,4 - -
27.05.2018 01:00:00 15,3 13,8 13 7 O 1014,3 - 0,0
27.05.2018 00:00:00 15,9 13,6 9 5 O 1014,5 - 0,0
26.05.2018 23:00:00 16,8 13,7 8 4 O 1013,9 - -
26.05.2018 22:00:00 17,8 14,5 11 6 O 1012,6 - 0,0
26.05.2018 21:00:00 18,5 14,8 9 5 O 1012,3 - 0,0
26.05.2018 20:00:00 19,3 14,5 11 6 OZO 1011,8 - -
26.05.2018 19:00:00 20,2 14,1 13 7 ZO 1011,5 - 0,0
26.05.2018 18:00:00 20,6 13,8 24 13 OZO 1010,7 - 0,0
26.05.2018 17:00:00 21,1 13,3 21 11 ZO 1011,1 35 -
26.05.2018 16:00:00 21,7 13,6 26 14 OZO 1011,1 - 0,0
26.05.2018 15:00:00 23,0 14,3 29 16 OZO 1011,0 - 0,0
26.05.2018 14:00:00 21,1 14,5 22 12 OZO 1012,0 27 -
26.05.2018 13:00:00 19,6 14,6 18 10 OZO 1012,9 - 0,0
26.05.2018 12:00:00 19,1 14,6 22 12 ZO 1012,8 - 0,0
26.05.2018 11:00:00 18,2 14,3 22 12 OZO 1013,0 25 -
26.05.2018 10:00:00 16,1 13,4 26 14 OZO 1012,7 - 0,0
26.05.2018 09:00:00 15,7 12,8 24 13 OZO 1013,4 - 0,0
26.05.2018 08:00:00 15,3 11,3 18 10 OZO 1013,3 - -
26.05.2018 07:00:00 15,0 10,6 16 9 O 1013,0 - 0,0
26.05.2018 06:00:00 14,7 10,9 13 7 O 1012,8 - 0,0
26.05.2018 05:00:00 14,7 10,1 13 7 O 1012,9 - -
26.05.2018 04:00:00 14,4 10,6 11 6 O 1013,1 - 0,0
26.05.2018 03:00:00 14,2 11,4 9 5 O 1013,7 - 0,0
26.05.2018 02:00:00 14,5 12,5 8 4 O 1014,4 - -
26.05.2018 01:00:00 14,0 11,9 5 3 NO 1014,6 - 0,0
26.05.2018 00:00:00 14,8 12,5 9 5 OZO 1013,3 - 0,0
25.05.2018 23:00:00 15,5 12,4 11 6 O 1012,6 - -
25.05.2018 22:00:00 17,4 12,3 16 9 ZO 1011,7 - 0,0
25.05.2018 21:00:00 19,7 11,7 13 7 ZO 1010,9 - 0,0
25.05.2018 20:00:00 21,6 9,2 24 13 OZO 1010,1 - -
25.05.2018 19:00:00 22,9 9,7 22 12 OZO 1009,7 - 0,0
25.05.2018 18:00:00 24,1 9,7 24 13 OZO 1009,5 - 0,0
25.05.2018 17:00:00 24,4 9,5 29 16 OZO 1009,6 40 -
25.05.2018 16:00:00 24,2 9,7 31 17 OZO 1009,7 - 0,0
25.05.2018 15:00:00 24,1 8,9 31 17 ZO 1010,1 - 0,0
25.05.2018 14:00:00 23,8 12,4 21 11 OZO 1010,7 29 -
25.05.2018 13:00:00 22,9 13,9 21 11 OZO 1011,4 - 0,0
25.05.2018 12:00:00 21,4 12,5 22 12 O 1012,2 - 0,0
25.05.2018 11:00:00 20,1 12,6 18 10 O 1012,7 30 -
25.05.2018 10:00:00 17,1 14,2 15 8 O 1013,9 - 0,0
25.05.2018 09:00:00 14,1 12,1 11 6 NO 1015,4 - 0,2
25.05.2018 08:00:00 13,1 11,3 11 6 NO 1016,3 - -
25.05.2018 07:00:00 14,3 11,3 13 7 O 1016,2 - 0,4
25.05.2018 06:00:00 14,8 10,0 18 10 O 1013,9 - 0,0
25.05.2018 05:00:00 14,0 9,0 13 7 O 1014,9 - -
25.05.2018 04:00:00 15,2 8,9 8 4 OZO 1015,2 - 0,0
25.05.2018 03:00:00 14,2 8,6 13 7 O 1015,3 - 0,0
25.05.2018 02:00:00 15,3 8,8 13 7 O 1015,5 - -
25.05.2018 01:00:00 16,3 8,0 16 9 O 1014,9 - 0,0
25.05.2018 00:00:00 16,6 8,8 15 8 O 1015,5 - 0,0
24.05.2018 23:00:00 17,0 8,9 15 8 O 1015,6 - -
24.05.2018 22:00:00 18,2 11,0 11 6 O 1014,6 - 0,0
24.05.2018 21:00:00 21,2 11,8 13 7 OZO 1013,2 - 0,0
24.05.2018 20:00:00 23,8 12,7 9 5 OZO 1012,0 - -
24.05.2018 19:00:00 24,6 11,9 11 6 OZO 1011,7 - 0,0
24.05.2018 18:00:00 23,9 12,8 11 6 ZO 1012,5 - 0,0
24.05.2018 17:00:00 24,6 13,5 11 6 OZO 1012,4 30 -
24.05.2018 16:00:00 24,6 13,8 11 6 O 1012,8 - 0,0
24.05.2018 15:00:00 24,1 13,3 11 6 OZO 1013,8 - 0,0
24.05.2018 14:00:00 23,7 14,9 13 7 ZO 1014,5 30 -
24.05.2018 13:00:00 22,6 13,9 13 7 OZO 1015,2 - 0,0
24.05.2018 12:00:00 21,2 13,4 18 10 O 1015,4 - 0,0
24.05.2018 11:00:00 20,1 13,5 18 10 OZO 1016,0 35 -
24.05.2018 10:00:00 18,8 14,5 21 11 OZO 1016,1 - 0,0
24.05.2018 09:00:00 15,7 13,9 13 7 O 1016,9 - 0,0
24.05.2018 08:00:00 14,7 13,6 11 6 OZO 1016,8 - -
24.05.2018 07:00:00 13,5 12,6 13 7 OZO 1017,2 - 0,0
24.05.2018 06:00:00 14,1 12,7 9 5 OZO 1016,9 - 0,8
24.05.2018 05:00:00 14,4 13,1 4 2 NNW 1017,9 - -
24.05.2018 04:00:00 15,1 12,6 8 4 O 1017,2 - 0,2
24.05.2018 03:00:00 14,9 12,9 4 2 OZO 1017,1 - 0,0
24.05.2018 02:00:00 14,8 13,0 8 4 O 1017,5 - -
24.05.2018 01:00:00 15,2 13,0 9 5 O 1017,8 - 0,0
24.05.2018 00:00:00 15,3 13,3 11 6 O 1017,9 - 0,0
23.05.2018 23:00:00 15,1 13,8 11 6 ONO 1018,0 - -
23.05.2018 22:00:00 14,9 13,6 13 7 O 1017,5 - 0,0
23.05.2018 21:00:00 15,9 14,1 16 9 ZO 1016,6 - 0,6
23.05.2018 20:00:00 18,4 15,1 5 3 W 1016,0 - -
23.05.2018 19:00:00 23,0 11,7 5 3 ZZO 1013,8 - 0,0
23.05.2018 18:00:00 24,7 11,3 5 3 OZO 1013,3 - 0,0
23.05.2018 17:00:00 24,7 11,6 4 2 ZZW 1013,4 25 -
23.05.2018 16:00:00 24,0 11,0 4 2 ZZW 1014,1 - 0,0
23.05.2018 15:00:00 23,8 10,8 5 3 Z 1014,8 - 0,0
23.05.2018 14:00:00 23,5 12,8 5 3 ZZW 1015,2 20 -
23.05.2018 13:00:00 22,0 12,0 8 4 ZO 1015,9 - 0,0
23.05.2018 12:00:00 20,8 12,5 5 3 Z 1016,7 - 0,0
23.05.2018 11:00:00 19,8 13,0 9 5 ZO 1016,9 20 -
23.05.2018 10:00:00 18,6 12,3 9 5 ZO 1017,0 - 0,0
23.05.2018 09:00:00 15,8 11,0 5 3 NNW 1017,5 - 0,0
23.05.2018 08:00:00 14,4 9,6 4 2 O 1017,4 - -
23.05.2018 07:00:00 12,2 8,8 9 5 O 1017,3 - 0,0
23.05.2018 06:00:00 12,5 8,8 9 5 O 1016,9 - 0,0
23.05.2018 05:00:00 12,3 8,8 9 5 O 1017,1 - -
23.05.2018 04:00:00 12,7 8,8 11 6 O 1017,1 - 0,0
23.05.2018 03:00:00 13,4 8,9 9 5 O 1016,9 - 0,0
23.05.2018 02:00:00 13,7 8,9 9 5 O 1016,7 - -
23.05.2018 01:00:00 13,6 9,4 9 5 ONO 1016,7 - 0,0
23.05.2018 00:00:00 14,2 9,6 13 7 O 1016,4 - 0,0
22.05.2018 23:00:00 15,0 10,0 11 6 O 1015,7 - -
22.05.2018 22:00:00 16,0 10,7 11 6 O 1014,5 - 0,0
22.05.2018 21:00:00 18,9 11,2 11 6 OZO 1013,3 - 0,0
22.05.2018 20:00:00 22,6 9,4 4 2 ZZW 1011,9 - -
22.05.2018 19:00:00 23,5 7,6 8 4 WZW 1011,4 - 0,0
22.05.2018 18:00:00 23,8 9,4 8 4 WZW 1010,9 - 0,0
22.05.2018 17:00:00 23,7 10,7 8 4 W 1010,8 30 -
22.05.2018 16:00:00 23,4 11,1 13 7 WZW 1011,0 - 0,0
22.05.2018 15:00:00 22,4 11,8 8 4 WZW 1011,9 - 0,0
22.05.2018 14:00:00 21,2 12,9 8 4 WZW 1012,4 30 -
22.05.2018 13:00:00 20,3 14,2 8 4 W 1012,7 - 0,0
22.05.2018 12:00:00 18,6 13,7 8 4 WZW 1013,2 - 0,0

tt = temperatuur
td = dauwpunt
ff = windsnelheid
dd = windrichting
ppp = luchtdruk
vv = zicht
rr = neerslag

Weerstations in de omgeving